Tracking 31027 objects as of 18-Jul-2025
HD Live streaming from Space Station
objects crossing your sky now

DELTA 1 DEB

Track DELTA 1 DEB now!
10-day predictions


NORAD ID: 10716
Int'l Code: 1976-077AM
Perigee: 1,257.3 km
Apogee: 1,433.9 km
Inclination: 102.7 °
Period: 112.4 minutes
Semi major axis: 7716 km
RCS: 0.0939 m2 (small)
Launch date: July 29, 1976
Source: United States (US)
Launch site: AIR FORCE WESTERN TEST RANGE (AFWTR)

Note: This is SATELLITE DEBRIS
Your satellite tracking list
Your tracking list is empty




NASA's NSSDC Master Catalog

Two Line Element Set (TLE):
1 10716U 76077AM  25199.36957150  .00002469  00000-0  10676-1 0  9996
2 10716 102.7382 354.1848 0114430  41.0039 349.2541 12.80738923234036
Source of the keplerian elements: AFSPC